This is the latest recevied weather packets stored in our database for station/object KJ7HSW. If no packets are shown the sender has not sent any weather packets the latest 10 day(s).
| Time | Temp. | Humidity | Pressure | Rain* | Wind** | Luminosity | Snow |
|---|---|---|---|---|---|---|---|
| 1788538095 | 12.78° C | 88% | 1013.7 hPa | 0 mm | - | 256 W/m² | - |
| 1788537790 | 12.22° C | 89% | 1013.7 hPa | 0 mm | - | 177 W/m² | - |
| 1788537490 | 12.22° C | 91% | 1013.8 hPa | 0 mm | - | 153 W/m² | - |
| 1788537184 | 11.67° C | 91% | 1013.9 hPa | 0 mm | - | 136 W/m² | - |
| 1788536883 | 11.67° C | 92% | 1013.8 hPa | 0 mm | - | 133 W/m² | - |
| 1788536578 | 11.11° C | 93% | 1013.8 hPa | 0 mm | - | 149 W/m² | - |
| 1788536273 | 11.11° C | 94% | 1013.7 hPa | 0 mm | - | 144 W/m² | - |
| 1788535969 | 10.56° C | 94% | 1013.8 hPa | 0 mm | - | 150 W/m² | - |
| 1788535665 | 10.56° C | 95% | 1013.8 hPa | 0 mm | - | 145 W/m² | - |
| 1788535360 | 10° C | 95% | 1013.8 hPa | 0 mm | - | 125 W/m² | - |
| 1788535055 | 10° C | 95% | 1013.7 hPa | 0 mm | - | 111 W/m² | - |
| 1788534753 | 10° C | 95% | 1013.7 hPa | 0 mm | - | 88 W/m² | - |
| 1788534450 | 10° C | 96% | 1013.5 hPa | 0 mm | - | 64 W/m² | - |
| 1788534145 | 10° C | 96% | 1013.5 hPa | 0 mm | - | 54 W/m² | - |
| 1788533843 | 9.44° C | 96% | 1013.4 hPa | 0 mm | - | 48 W/m² | - |
| 1788533539 | 9.44° C | 96% | 1013.5 hPa | 0 mm | - | 46 W/m² | - |
| 1788533234 | 9.44° C | 96% | 1013.4 hPa | 0 mm | - | 54 W/m² | - |
| 1788532930 | 9.44° C | 96% | 1013.3 hPa | 0 mm | - | 46 W/m² | - |
| 1788532625 | 9.44° C | 96% | 1013 hPa | 0 mm | - | 32 W/m² | - |
| 1788532322 | 8.89° C | 96% | 1013.2 hPa | 0 mm | - | 22 W/m² | - |
| 1788532018 | 8.89° C | 96% | 1013.1 hPa | 0 mm | - | 17 W/m² | - |
| 1788531714 | 8.89° C | 96% | 1013.2 hPa | 0 mm | - | 14 W/m² | - |
| 1788531414 | 8.89° C | 96% | 1013.2 hPa | 0 mm | - | 12 W/m² | - |
| 1788531109 | 8.89° C | 96% | 1012.9 hPa | 0 mm | - | 10 W/m² | - |
| 1788530805 | 8.89° C | 96% | 1013 hPa | 0 mm | - | 10 W/m² | - |
* Rain latest hour (hover to see other rain measurements)
** Current wind speed in m/s (hover to see current wind gust speed)